This demonstration page uses our WeatherBlox Daily Observations layout. Learn more.

Left ArrowRight Arrow

41.86663, -103.66717

Hourly Observations for March 14, 2020

Temp ( °F °C ) Dew Point ( °F °C ) Humidity (%) Winds ( mph kmh ) Pressure ( in mb ) Visibility ( mi km ) Precip ( " mm )
12:02 am 00:02 Cloudy with Light Wintry Mix 28 -2.2 26 -3.3 92 92 ESE 22 35 30.21 1023 4 6 0.00 0.00
12:53 am 00:53 Cloudy with Mist and Fog 28 -2.2 27 -2.8 96 96 ESE 22 35 30.12 1020 3 5 0.00 0.00
1:07 am 01:07 Cloudy with Mist and Fog 28 -2.2 27 -2.8 96 96 ESE 23 37 30.20 1023 3 5 N/A
1:53 am 01:53 Cloudy with Mist and Fog 28 -2.2 27 -2.8 96 96 SE 17 28 30.14 1021 5 8 N/A
2:19 am 02:19 Cloudy with Light Snow 28 -2.2 27 -2.8 96 96 ESE 18 30 30.21 1023 4 6 0.00 0.00
2:28 am 02:28 Cloudy with Light Snow 28 -2.2 27 -2.8 96 96 ESE 18 30 30.20 1023 2 3 0.00 0.00
2:53 am 02:53 Windy with Snow Likely 28 -2.2 27 -2.8 96 96 ESE 22 35 30.12 1020 3 4 0.01 0.25
2:58 am 02:58 Windy with Snow Likely 28 -2 27 -3 93 93 ESE 20 31 30.18 1022 3 5 N/A
3:35 am 03:35 Cloudy with Mist and Fog 28 -2.2 27 -2.8 96 96 ESE 20 31 30.18 1022 5 8 0.00 0.00
3:46 am 03:46 Cloudy with Mist and Fog 28 -2.2 27 -2.8 96 96 ESE 21 33 30.18 1022 6 10 0.00 0.00
3:53 am 03:53 Cloudy with Mist and Fog 28 -2.2 27 -2.8 96 96 ESE 17 28 30.12 1020 6 10 0.00 0.00
4:09 am 04:09 Cloudy 28 -2.2 27 -2.8 96 96 SE 17 28 30.19 1022 10 16 N/A
4:53 am 04:53 Cloudy 28 -2.2 27 -2.8 96 96 SE 17 28 30.13 1020 10 16 N/A
5:15 am 05:15 Cloudy 28 -2.2 27 -2.8 96 96 SE 18 30 30.20 1023 10 16 N/A
5:53 am 05:53 Cloudy 28 -2.2 27 -2.8 96 96 SE 16 26 30.15 1021 7 11 N/A
6:53 am 06:53 Cloudy 27 -2.8 26 -3.3 96 96 SE 17 28 30.18 1022 9 14 N/A
7:53 am 07:53 Cloudy with Mist and Fog 27 -2.8 26 -3.3 96 96 SE 17 28 30.22 1023 6 10 N/A
8:53 am 08:53 Cloudy with Mist and Fog 28 -2.2 27 -2.8 96 96 SE 17 28 30.24 1024 4 6 N/A
9:53 am 09:53 Cloudy 29 -1.7 27 -2.8 92 92 SE 16 26 30.26 1025 10 16 N/A
10:53 am 10:53 Cloudy 30 -1.1 28 -2.2 92 92 SE 17 28 30.27 1025 10 16 N/A
11:53 am 11:53 Cloudy 30 -1.1 28 -2.2 92 92 SE 16 26 30.28 1025 10 16 N/A
12:53 pm 12:53 Cloudy 31 -0.6 28 -2.2 89 89 SE 17 28 30.28 1025 10 16 N/A
1:53 pm 13:53 Cloudy 33 0.6 29 -1.7 85 85 SE 16 26 30.28 1025 10 16 N/A
2:27 pm 14:27 Cloudy 33 0.6 28 -2.2 82 82 SE 18 30 30.30 1026 10 16 N/A
2:53 pm 14:53 Cloudy 33 0.6 28 -2.2 82 82 SE 17 28 30.27 1025 10 16 N/A
3:53 pm 15:53 Cloudy 33 0.6 28 -2.2 82 82 SE 15 24 30.27 1025 10 16 N/A
4:53 pm 16:53 Cloudy 33 0.6 28 -2.2 82 82 undefined N/A 30.29 1026 10 16 N/A
5:17 pm 17:17 Cloudy 33 0.6 27 -2.8 78 78 SE 17 28 30.31 1026 10 16 N/A
5:53 pm 17:53 Cloudy 32 undefined 28 -2.2 85 85 SSE 16 26 30.29 1026 10 16 N/A
6:53 pm 18:53 Cloudy 32 undefined 28 -2.2 85 85 SSE 16 26 30.32 1027 10 16 N/A
7:53 pm 19:53 Cloudy 32 undefined 29 -1.7 88 88 undefined N/A 30.34 1027 10 16 N/A
8:53 pm 20:53 Cloudy 32 undefined 28 -2.2 85 85 SSE 15 24 30.36 1028 10 16 N/A
9:53 pm 21:53 Cloudy 32 undefined 27 -2.8 82 82 SSE 20 31 30.35 1028 10 16 N/A
10:28 pm 22:28 Cloudy 32 undefined 27 -2.8 82 82 SSE 23 37 30.38 1029 10 16 N/A
10:53 pm 22:53 Cloudy 32 undefined 28 -2.2 85 85 SE 24 39 30.35 1028 10 16 N/A
11:02 pm 23:02 Cloudy 32 undefined 28 -2.2 85 85 SSE 23 37 30.37 1029 10 16 N/A
11:46 pm 23:46 Cloudy 32 undefined 27 -2.8 82 82 SE 16 26 30.37 1029 10 16 N/A
11:53 pm 23:53 Cloudy 32 undefined 27 -2.8 82 82 SSE 21 33 30.34 1027 10 16 N/A

Powered by AerisWeather